Zurück zum Katalog

FENGYUN 1C DEB

AktivSSO
NORAD 31228·DEBRIS·🇨🇳 China

Gestartet May 10, 1999 von Taiyuan Satellite Launch Center

Loading…

Nächste Überflüge (nächste 24 Stunden)

TLE

AktuellSource: Space-Track

Epoche: Sep 14, 2026, 12:27 UTC

1 31228U 99025BLJ 26257.51927226  .00001003  00000-0  33783-3 0  9998
2 31228  98.8666 182.8952 0077879 353.6750  60.6493 14.37692357 15284

Verfolge FENGYUN 1C DEB in Echtzeit mit AllMySat

Download on the App Store